Regional Weather Roundup
Issued by NWS Goodland, KS

Home | Current Version | Previous Version | Graphics & Text | Print | Product List | Glossary On
Versions: 1 2 3 4 5 6 7 8 9 10 11 12 13 14 15 16 17 18 19 20 21 22 23 24 25 26 27 28 29 30 31 32 33 34 35 36 37 38 39 40 41 42 43 44 45 46 47 48 49 50
000
ASUS43 KGLD 290059
RWRGLD

GOODLAND FORECAST AREA HOURLY WEATHER ROUNDUP
NATIONAL WEATHER SERVICE GOODLAND KS
700 PM MDT SUN AUG 28 2016

...OFFICIAL OBSERVATIONS...

CITY           SKY/WX    TMP DP  RH WIND       PRES   REMARKS
GOODLAND KS    CLEAR     80  56  43 SE10      30.09R
HILL CITY KS   CLEAR     81  63  54 SE6       30.06R
IMPERIAL NEB   CLEAR     77  58  51 S7        30.09R
MCCOOK NEB     CLEAR     78  61  55 E7        30.07R
AKRON CO       CLOUDY    78  49  35 SE9       30.14R
BURLINGTON CO  CLEAR     80  54  40 SE10      30.12R
LIMON CO       CLOUDY    69  48  47 NW6       30.20R
$$

...UNOFFICIAL OBSERVATIONS...

CITY           SKY/WX    TMP DP  RH WIND       PRES   REMARKS
COLBY KS       CLEAR     82  61  47 E12       30.09S
LENORA KS        N/A     80  32  17 MISG        N/A
NORTON KS      CLEAR     79  54  41 SE6       30.07R
SHARON SPRINGS   N/A     81  61  50 SE13        N/A
TRENTON NEB      N/A     77  32  19 MISG        N/A
KIT CARSON CO    N/A     81  56  42 MISG        N/A
YUMA CO          N/A     75  58  54 SE5         N/A
$$



USA.gov is the U.S. government's official web portal to all federal, state and local government web resources and services.